BEARCAMP R @ S TAMWORTH: From 11/05/2018 11:00 to 11/19/2018 20:00

Date STAGE [FT] FLOW [CFS] PRECIPITATION INCREMENT [IN]
11/19/2018 15:00 4.60 182.1 0.00
11/19/2018 14:00 4.61 182.1 0.00
11/19/2018 13:00 4.62 183.6 0.00
11/19/2018 12:00 4.62 185.5 0.00
11/19/2018 11:00 4.62 186.5 0.00
11/19/2018 10:00 4.61 187.5 0.00
11/19/2018 09:00 4.62 188.0 0.00
11/19/2018 08:00 4.62 189.1 0.00
11/19/2018 07:00 4.63 190.3 0.00
11/19/2018 06:00 4.63 191.0 0.00
11/19/2018 05:00 4.63 193.5 0.00
11/19/2018 04:00 4.64 194.0 0.00
11/19/2018 03:00 4.64 194.0 0.00
11/19/2018 02:00 4.64 195.0 0.00
11/19/2018 01:00 4.65 196.1 0.00
11/19/2018 00:00 4.65 198.0 0.00
11/18/2018 23:00 4.66 199.0 0.00
11/18/2018 22:00 4.65 201.5 0.00
11/18/2018 21:00 4.66 202.0 0.00
11/18/2018 20:00 4.66 202.5 0.00
11/18/2018 19:00 4.67 205.0 0.00
11/18/2018 18:00 4.67 206.0 0.00
11/18/2018 17:00 4.67 206.8 0.00
11/18/2018 16:00 4.67 207.5 0.00
11/18/2018 15:00 4.67 208.6 0.00
11/18/2018 14:00 4.68 210.5 0.00
11/18/2018 13:00 4.69 212.0 0.00
11/18/2018 12:00 4.69 212.0 0.00
11/18/2018 11:00 4.69 214.5 0.00
11/18/2018 10:00 4.70 217.0 0.00
11/18/2018 09:00 4.71 219.5 0.00
11/18/2018 08:00 4.71 221.0 0.00
11/18/2018 07:00 4.72 221.0 0.00
11/18/2018 06:00 4.72 224.5 0.00
11/18/2018 05:00 4.72 225.0 0.00
11/18/2018 04:00 4.72 226.0 0.00
11/18/2018 03:00 4.72 228.5 0.00
11/18/2018 02:00 4.74 229.0 0.00
11/18/2018 01:00 4.74 232.5 0.00
11/18/2018 00:00 4.74 233.0 0.00
11/17/2018 23:00 4.74 233.5 0.00
11/17/2018 22:00 4.75 236.0 0.00
11/17/2018 21:00 4.75 236.0 0.00
11/17/2018 20:00 4.75 237.5 0.00
11/17/2018 19:00 4.76 237.5 0.00
11/17/2018 18:00 4.76 239.5 0.00
11/17/2018 17:00 4.76 241.0 0.00
11/17/2018 16:00 4.76 241.0 0.00
11/17/2018 15:00 4.77 241.5 0.00
11/17/2018 14:00 4.77 245.0 0.00
11/17/2018 13:00 4.77 245.5 0.00
11/17/2018 12:00 4.78 247.0 0.00
11/17/2018 11:00 4.79 249.0 0.00
11/17/2018 10:00 4.79 253.4 0.00
11/17/2018 09:00 4.80 254.0 0.00
11/17/2018 08:00 4.80 257.5 0.00
11/17/2018 07:00 4.80 258.0 0.00
11/17/2018 06:00 4.80 262.4 0.01
11/17/2018 05:00 4.81 264.5 0.00
11/17/2018 04:00 4.82 267.0 0.01
11/17/2018 03:00 4.82 270.1 0.00
11/17/2018 02:00 4.83 272.3 0.02
11/17/2018 01:00 4.84 274.0 0.00
11/17/2018 00:00 4.84 276.0 0.00
11/16/2018 23:00 4.84 280.4 0.01
11/16/2018 22:00 4.85 284.1 0.00
11/16/2018 21:00 4.86 286.0 0.00
11/16/2018 20:00 4.86 289.1 0.00
11/16/2018 19:00 4.87 292.3 0.00
11/16/2018 18:00 4.87 294.1 0.04
11/16/2018 17:00 4.88 296.0 0.00
11/16/2018 16:00 4.88 298.5 0.00
11/16/2018 15:00 4.88 301.0 0.00
11/16/2018 14:00 4.90 304.1 0.01
11/16/2018 13:00 4.89 305.4 0.00
11/16/2018 12:00 4.90 307.9 0.00
11/16/2018 11:00 4.92 309.8 0.00
11/16/2018 10:00 4.91 314.0 0.00
11/16/2018 09:00 4.91 313.5 0.00
11/16/2018 08:00 4.92 316.3 0.00
11/16/2018 07:00 4.92 315.0 0.00
11/16/2018 06:00 4.92 320.6 0.00
11/16/2018 05:00 4.93 324.4 0.00
11/16/2018 04:00 4.94 325.0 0.00
11/16/2018 03:00 4.94 328.5 0.00
11/16/2018 02:00 4.95 329.0 0.00
11/16/2018 01:00 4.95 330.9 0.00
11/16/2018 00:00 4.96 337.1 0.00
11/15/2018 23:00 4.97 340.9 0.00
11/15/2018 22:00 4.98 347.1 0.00
11/15/2018 21:00 4.99 352.1 0.00
11/15/2018 20:00 5.00 359.4 0.00
11/15/2018 19:00 5.01 363.1 0.00
11/15/2018 18:00 5.03 367.4 0.00
11/15/2018 17:00 5.04 373.0 0.00
11/15/2018 16:00 5.04 374.9 0.00
11/15/2018 15:00 5.05 376.8 0.00
11/15/2018 14:00 5.05 376.1 0.00
11/15/2018 13:00 5.04 373.0 0.00
11/15/2018 12:00 5.04 373.0 0.00
11/15/2018 11:00 5.20 394.9 0.00
11/15/2018 10:00 5.14 452.6 0.00
11/15/2018 09:00 5.23 469.0 0.00
11/15/2018 08:00 5.23 471.1 0.00
11/15/2018 07:00 5.26 474.8 0.00
11/15/2018 06:00 5.26 482.3 0.00
11/15/2018 05:00 5.25 474.6 0.00
11/15/2018 04:00 5.16 460.6 0.00
11/15/2018 03:00 5.22 438.0 0.00
11/15/2018 02:00 5.17 429.9 0.00
11/15/2018 01:00 5.18 442.4 0.00
11/15/2018 00:00 5.19 448.6 0.00
11/14/2018 23:00 5.23 460.8 0.00
11/14/2018 22:00 5.23 473.4 0.00
11/14/2018 21:00 5.25 480.8 0.00
11/14/2018 20:00 5.26 491.1 0.00
11/14/2018 19:00 5.30 498.9 0.00
11/14/2018 18:00 5.29 507.3 0.00
11/14/2018 17:00 5.30 519.9 0.00
11/14/2018 16:00 5.33 527.3 0.00
11/14/2018 15:00 5.34 529.5 0.00
11/14/2018 14:00 5.34 532.3 0.00
11/14/2018 13:00 5.37 538.4 0.00
11/14/2018 12:00 5.35 546.5 0.00
11/14/2018 11:00 5.37 554.8 0.00
11/14/2018 10:00 5.38 561.5 0.00
11/14/2018 09:00 5.40 573.5 0.00
11/14/2018 08:00 5.43 583.3 0.00
11/14/2018 07:00 5.45 588.5 0.00
11/14/2018 06:00 5.45 600.5 0.00
11/14/2018 05:00 5.47 607.3 0.00
11/14/2018 04:00 5.48 611.9 0.00
11/14/2018 03:00 5.49 624.5 0.00
11/14/2018 02:00 5.50 637.8 0.00
11/14/2018 01:00 5.52 641.6 0.00
11/14/2018 00:00 5.53 645.0 0.00
11/13/2018 23:00 5.54 645.0 0.00
11/13/2018 22:00 5.53 634.6 0.00
11/13/2018 21:00 5.49 619.4 0.00
11/13/2018 20:00 5.45 591.5 0.00
11/13/2018 19:00 5.41 551.9 0.00
11/13/2018 18:00 5.34 505.9 0.00
11/13/2018 17:00 5.14 454.8 0.03
11/13/2018 16:00 5.09 423.6 0.00
11/13/2018 15:00 5.02 394.6 0.00
11/13/2018 14:00 4.95 362.8 0.00
11/13/2018 13:00 4.89 330.1 0.00
11/13/2018 12:00 4.86 302.9 0.40
11/13/2018 11:00 4.85 287.3 0.13
11/13/2018 10:00 4.86 279.8 0.00
11/13/2018 09:00 4.84 274.5 0.00
11/13/2018 08:00 4.83 270.8 0.00
11/13/2018 07:00 4.83 271.4 0.00
11/13/2018 06:00 4.82 268.9 0.00
11/13/2018 05:00 4.82 270.8 0.00
11/13/2018 04:00 4.83 268.3 0.00
11/13/2018 03:00 4.83 269.5 0.00
11/13/2018 02:00 4.83 272.0 0.00
11/13/2018 01:00 4.84 275.5 0.00
11/13/2018 00:00 4.84 276.0 0.00
11/12/2018 23:00 4.86 279.8 0.00
11/12/2018 22:00 4.85 282.9 0.00
11/12/2018 21:00 4.86 281.6 0.00
11/12/2018 20:00 4.85 286.0 0.00
11/12/2018 19:00 4.86 284.8 0.00
11/12/2018 18:00 4.86 287.9 0.00
11/12/2018 17:00 4.87 291.6 0.00
11/12/2018 16:00 4.88 294.8 0.00
11/12/2018 15:00 4.88 297.9 0.00
11/12/2018 14:00 4.89 301.0 0.00
11/12/2018 13:00 4.89 305.4 0.00
11/12/2018 12:00 4.90 311.9 0.00
11/12/2018 11:00 4.92 316.9 0.00
11/12/2018 10:00 4.93 321.3 0.00
11/12/2018 09:00 4.93 324.1 0.00
11/12/2018 08:00 4.94 330.4 0.00
11/12/2018 07:00 4.96 334.0 0.00
11/12/2018 06:00 4.96 338.4 0.00
11/12/2018 05:00 4.97 345.3 0.00
11/12/2018 04:00 4.99 349.0 0.00
11/12/2018 03:00 4.99 352.1 0.00
11/12/2018 02:00 5.00 357.1 0.00
11/12/2018 01:00 5.01 362.5 0.00
11/12/2018 00:00 5.02 369.3 0.00
11/11/2018 23:00 5.04 373.0 0.00
11/11/2018 22:00 5.04 377.4 0.00
11/11/2018 21:00 5.05 380.5 0.00
11/11/2018 20:00 5.06 385.1 0.00
11/11/2018 19:00 5.07 390.1 0.00
11/11/2018 18:00 5.08 392.0 0.00
11/11/2018 17:00 5.08 395.1 0.00
11/11/2018 16:00 5.09 398.9 0.00
11/11/2018 15:00 5.10 403.3 0.00
11/11/2018 14:00 5.10 405.1 0.00
11/11/2018 13:00 5.11 411.4 0.00
11/11/2018 12:00 5.12 412.6 0.00
11/11/2018 11:00 5.13 418.9 0.00
11/11/2018 10:00 5.14 426.4 0.00
11/11/2018 09:00 5.15 430.8 0.00
11/11/2018 08:00 5.16 438.6 0.00
11/11/2018 07:00 5.17 442.4 0.00
11/11/2018 06:00 5.18 445.5 0.00
11/11/2018 05:00 5.18 450.8 0.00
11/11/2018 04:00 5.20 460.1 0.00
11/11/2018 03:00 5.22 467.9 0.00
11/11/2018 02:00 5.24 472.6 0.00
11/11/2018 01:00 5.27 481.0 0.00
11/11/2018 00:00 5.26 488.5 0.00
11/10/2018 23:00 5.26 493.9 0.00
11/10/2018 22:00 5.28 500.9 0.00
11/10/2018 21:00 5.30 498.3 0.00
11/10/2018 20:00 5.26 508.3 0.00
11/10/2018 19:00 5.30 512.5 0.00
11/10/2018 18:00 5.30 510.3 0.00
11/10/2018 17:00 5.31 511.0 0.00
11/10/2018 16:00 5.29 505.0 0.01
11/10/2018 15:00 5.28 496.6 0.00
11/10/2018 14:00 5.27 489.8 0.00
11/10/2018 13:00 5.27 483.8 0.00
11/10/2018 12:00 5.22 473.6 0.00
11/10/2018 11:00 5.19 462.1 0.00
11/10/2018 10:00 5.17 450.0 0.00
11/10/2018 09:00 5.14 439.3 0.00
11/10/2018 08:00 5.16 425.5 0.00
11/10/2018 07:00 5.08 411.4 0.00
11/10/2018 06:00 5.05 393.9 0.00
11/10/2018 05:00 5.03 380.5 0.12
11/10/2018 04:00 5.04 368.0 0.00
11/10/2018 03:00 5.00 362.0 0.00
11/10/2018 02:00 5.00 354.5 0.00
11/10/2018 01:00 4.98 351.5 0.00
11/10/2018 00:00 4.98 345.9 0.01
11/09/2018 23:00 4.96 342.8 0.12
11/09/2018 22:00 4.98 336.5 0.00
11/09/2018 21:00 4.96 330.9 0.00
11/09/2018 20:00 4.95 325.5 0.00
11/09/2018 19:00 4.94 322.5 0.00
11/09/2018 18:00 4.94 325.0 0.00
11/09/2018 17:00 4.95 327.5 0.00
11/09/2018 16:00 4.95 330.9 0.00
11/09/2018 15:00 4.96 334.6 0.00
11/09/2018 14:00 4.97 339.0 0.00
11/09/2018 13:00 4.97 339.6 0.00
11/09/2018 12:00 4.98 348.4 0.00
11/09/2018 11:00 5.00 348.4 0.00
11/09/2018 10:00 5.00 355.9 0.00
11/09/2018 09:00 5.02 360.5 0.00
11/09/2018 08:00 5.02 364.3 0.00
11/09/2018 07:00 5.04 367.4 0.00
11/09/2018 06:00 5.05 371.1 0.00
11/09/2018 05:00 5.04 376.6 0.00
11/09/2018 04:00 5.06 382.9 0.00
11/09/2018 03:00 5.07 387.0 0.00
11/09/2018 02:00 5.07 391.4 0.00
11/09/2018 01:00 5.08 395.8 0.00
11/09/2018 00:00 5.10 399.5 0.00
11/08/2018 23:00 5.10 403.3 0.00
11/08/2018 22:00 5.13 409.5 0.00
11/08/2018 21:00 5.13 412.6 0.00
11/08/2018 20:00 5.14 418.9 0.00
11/08/2018 19:00 5.15 423.9 0.00
11/08/2018 18:00 5.15 430.8 0.00
11/08/2018 17:00 5.16 438.0 0.00
11/08/2018 16:00 5.18 444.9 0.00
11/08/2018 15:00 5.19 451.1 0.00
11/08/2018 14:00 5.20 455.9 0.00
11/08/2018 13:00 5.24 463.4 0.00
11/08/2018 12:00 5.25 474.3 0.00
11/08/2018 11:00 5.25 480.1 0.00
11/08/2018 10:00 5.27 486.4 0.00
11/08/2018 09:00 5.27 493.3 0.00
11/08/2018 08:00 5.31 503.6 0.00
11/08/2018 07:00 5.32 511.8 0.00
11/08/2018 06:00 5.33 519.1 0.00
11/08/2018 05:00 5.35 528.5 0.00
11/08/2018 04:00 5.36 535.4 0.00
11/08/2018 03:00 5.39 544.3 0.00
11/08/2018 02:00 5.40 557.8 0.00
11/08/2018 01:00 5.41 564.5 0.00
11/08/2018 00:00 5.43 572.8 0.00
11/07/2018 23:00 5.44 586.3 0.00
11/07/2018 22:00 5.47 590.0 0.00
11/07/2018 21:00 5.47 605.8 0.00
11/07/2018 20:00 5.49 611.9 0.00
11/07/2018 19:00 5.51 624.8 0.00
11/07/2018 18:00 5.53 637.0 0.00
11/07/2018 17:00 5.54 643.4 0.00
11/07/2018 16:00 5.57 657.1 0.00
11/07/2018 15:00 5.58 669.4 0.00
11/07/2018 14:00 5.59 676.6 0.00
11/07/2018 13:00 5.61 685.8 0.00
11/07/2018 12:00 5.64 699.6 0.00
11/07/2018 11:00 5.65 717.1 0.00
11/07/2018 10:00 5.65 723.1 0.00
11/07/2018 09:00 5.68 738.9 0.00
11/07/2018 08:00 5.70 751.1 0.00
11/07/2018 07:00 5.72 760.8 0.00
11/07/2018 06:00 5.75 776.5 0.00
11/07/2018 05:00 5.78 794.9 0.00
11/07/2018 04:00 5.81 812.6 0.00
11/07/2018 03:00 5.82 835.3 0.00
11/07/2018 02:00 5.83 848.5 0.00
11/07/2018 01:00 5.85 850.1 0.00
11/07/2018 00:00 5.83 866.0 0.00
11/06/2018 23:00 5.81 849.3 0.00
11/06/2018 22:00 5.72 821.8 0.00
11/06/2018 21:00 5.63 774.8 0.01
11/06/2018 20:00 5.55 716.3 0.11
11/06/2018 19:00 5.49 660.5 0.00
11/06/2018 18:00 5.43 621.4 0.03
11/06/2018 17:00 5.37 587.0 0.00
11/06/2018 16:00 5.31 551.0 0.21
11/06/2018 15:00 5.27 515.0 0.00
11/06/2018 14:00 5.28 496.6 0.00
11/06/2018 13:00 5.28 496.3 0.00
11/06/2018 12:00 5.27 495.5 0.00
11/06/2018 11:00 5.27 494.8 0.01
11/06/2018 10:00 5.25 487.9 0.02
11/06/2018 09:00 5.24 483.8 0.00
11/06/2018 08:00 5.25 474.3 0.00
11/06/2018 07:00 5.22 465.3 0.01
11/06/2018 06:00 5.21 459.4 0.00
11/06/2018 05:00 5.20 458.3 0.06
11/06/2018 04:00 5.19 456.0 0.14
11/06/2018 03:00 5.18 450.5 0.16
11/06/2018 02:00 5.20 446.8 0.00
11/06/2018 01:00 5.19 448.6 0.01
11/06/2018 00:00 5.21 452.6 0.01
11/05/2018 23:00 5.23 460.1 0.00
11/05/2018 22:00 5.22 465.4 0.00
11/05/2018 21:00 5.24 475.6 0.00
11/05/2018 20:00 5.25 480.1 0.00
11/05/2018 19:00 5.28 489.8 0.00
11/05/2018 18:00 5.27 496.6 0.00
11/05/2018 17:00 5.32 506.5 0.00
11/05/2018 16:00 5.33 517.1 0.00
11/05/2018 15:00 -- -- --
11/05/2018 14:00 -- -- --
11/05/2018 13:00 -- -- --
11/05/2018 12:00 -- -- --
11/05/2018 11:00 -- -- --